www.pogodaiklimat.ru
ПОГОДА в Наратхивате
Время
(UTC), дата
09 20.09
12 20.09
15 20.09
18 20.09
21 20.09
00 21.09
03 21.09
06 21.09
09 21.09
12 21.09
15 21.09
18 21.09
21 21.09
00 22.09
03 22.09
06 22.09
09 22.09
12 22.09
15 22.09
18 22.09
21 22.09
00 23.09
03 23.09
06 23.09
09 23.09
12 23.09
15 23.09
18 23.09
21 23.09
00 24.09
03 24.09
06 24.09
09 24.09
12 24.09
15 24.09
18 24.09
21 24.09
00 25.09
03 25.09
06 25.09
09 25.09
12 25.09
15 25.09
18 25.09
21 25.09
00 26.09
03 26.09
06 26.09
09 26.09
12 26.09
15 26.09
18 26.09
21 26.09
00 27.09
03 27.09
Ветер
(напр.,м/с)
Видим. Явления Облачность Т
(С)
Тd
(С)
f
(%)
Тe
(С)
Тes
(С)
Комфортность P
(гПа)
Po
(гПа)
Тmin
(С)
Tmax
(С)
R
(мм)
R24
(мм)
S
(см)
штиль 0 10 км 8/3 600 м
[Cu med, cong Ac und Cs]
+30.5 +24.0 68 +42 +46 опасность
перегрева
1007.7 1007.1
штиль 0 10 км 8/3 600 м
[Cu med, cong Cs]
+28.5 +24.9 81 +41 +41 опасность
перегрева
1009.0 1008.4 +32.2 25.3
штиль 0 8000 м дымка 9/3 600 м
[Cu med, cong Cs]
+27.2 +24.3 84 +38 +38 очень
душно
1010.6 1010.0
штиль 0 8000 м дымка 8/3 600 м
[Cu med, cong Cs]
+26.5 +24.3 88 +37 +37 очень
душно
1008.6 1008.0
штиль 0 8000 м дымка 8/3 600 м
[Cu med, cong Cs]
+26.0 +23.8 88 +36 +36 очень
душно
1007.8 1007.2
штиль 0 8000 м дымка 8/3 600 м
[Cu med, cong Cs]
+25.5 +23.3 88 +34 +35 очень
душно
1009.3 1008.7
штиль 0 12 км 4/1 600 м
[Cu hum Cs]
+31.7 +22.7 59 +41 +59 опасность
перегрева
1010.7 1010.2
В 7 12 км 4/1 600 м
[Cu hum Cs]
+32.4 +20.6 50 +39 +44 очень
душно
1008.8 1008.2
ЮВ 3 10 км 8/3 600 м
[Cu med, cong Cs]
+31.5 +22.3 58 +41 +44 опасность
перегрева
1007.8 1007.2
ЮВ 3 10 км 8/3 600 м
[Cu med, cong Cs]
+29.1 +23.1 70 +39 +39 очень
душно
1008.6 1008.1 +32.5
штиль 0 10 км 8/3 600 м
[Cu med, cong Cs]
+28.2 +23.5 76 +38 +38 очень
душно
1010.9 1010.3
штиль 0 9000 м дымка 8/3 600 м
[Cu med, cong Cs]
+27.0 +23.3 80 +36 +36 очень
душно
1008.8 1008.3
штиль 0 9000 м дымка 8/3 600 м
[Cu med, cong Cs]
+26.0 +23.1 84 +35 +35 очень
душно
1007.9 1007.3
ЮЗ 3 9000 м дымка 4/1 600 м
[Cu hum Cs]
+25.2 +23.0 88 +34 +34 очень
душно
1009.2 1008.6
штиль 0 12 км 3/1 600 м
[Cu hum Ci fib]
+32.0 +21.7 55 +41 +58 опасность
перегрева
1010.8 1010.2
В 6 12 км 4/3 600 м
[Cu med, cong Cs]
+33.0 +23.7 58 +44 +50 опасность
перегрева
1008.3 1007.8
СВ 6 12 км 6/3 600 м
[Cu med, cong Cs]
+32.2 +24.8 65 +45 +47 опасность
перегрева
1006.3 1005.7
штиль 0 10 км 6/3 600 м
[Cu med, cong Cs]
+29.5 +24.5 75 +42 +42 опасность
перегрева
1007.7 1007.2 +33.5
штиль 0 10 км 6/3 600 м
[Cu med, cong Cs]
+28.5 +24.2 78 +40 +40 очень
душно
1009.9 1009.3
ЮЗ 3 8000 м дымка 6/3 600 м
[Cu med, cong Cs]
+27.4 +23.9 81 +38 +38 очень
душно
1008.9 1008.3
штиль 0 8000 м дымка 9/3 600 м
[Cu med, cong Cs]
+25.8 +23.6 88 +35 +35 очень
душно
1007.1 1006.5
ЮЗ 5 7000 м дымка 10/3 600 м
[Cu med, cong Cs]
+25.5 +23.3 88 +34 +35 очень
душно
1009.7 1009.1
штиль 0 8000 м в посл. час дождь 10/3 300 м
[Cu Sc Ac As Cs]
+26.4 +25.0 92 +38 +45 очень
душно
1011.0 1010.4 0.4
З 3 9000 м дымка {дождь} 10/3 600 м
[Cu med, cong Ac As Cs]
+31.5 +25.0 68 +45 +51 опасность
перегрева
1008.3 1007.7 0.4 0.4
СВ 6 10 км 10/3 600 м
[Cu med, cong Ac lent Cs]
+32.0 +25.2 67 +46 +47 опасность
перегрева
1006.8 1006.2
ЮЗ 12 8000 м гроза без осадков 10/5 300 м
[Cb cap Ac As Cs]
+27.8 +23.3 77 +38 +38 очень
душно
1009.7 1009.1 +33.2 0.4
штиль 0 8000 м дымка {гроза, дождь} 10/3 600 м
[Cu med, cong Ac As Cs]
+24.1 +22.9 93 +32 +32 очень
душно
1011.6 1011.0 36
штиль 0 8000 м дымка {гроза, дождь} 9/3 600 м
[Cu med, cong Ac lent Cs]
+24.3 +23.1 93 +32 +32 очень
душно
1010.6 1010.0 36 36.0
штиль 0 8000 м дымка 8/3 600 м
[Cu med, cong Cs]
+24.5 +22.9 91 +32 +32 очень
душно
1010.0 1009.4
штиль 0 9000 м дымка 8/3 600 м
[Cu med, cong Cs]
+24.8 +23.5 92 +33 +34 очень
душно
1010.6 1010.0 36.0
штиль 0 12 км 6/3 600 м
[Cu med, cong Cs]
+30.5 +24.3 70 +43 +56 опасность
перегрева
1011.6 1011.0
СВ 7 12 км 6/3 600 м
[Cu med, cong Cs]
+32.0 +24.9 66 +45 +49 опасность
перегрева
1009.8 1009.2 35.6
СВ 8 10 км в посл. час гроза {дождь} 8/3 600 м
[Cu med, cong Cs]
+29.8 +25.3 77 +44 +44 опасность
перегрева
1007.6 1007.0 0.3
Ю 7 10 км гроза без осадков 8/3 600 м
[Cb cap Cs]
+29.2 +24.3 75 +41 +41 опасность
перегрева
1009.7 1009.1 +32.7 0.3 35.9
штиль 0 9000 м слаб. дождь 8/3 600 м
[Cu Sc Cs]
+25.8 +23.2 86 +35 +35 очень
душно
1010.8 1010.2 0.3
штиль 0 8000 м дымка {дождь} 8/3 600 м
[Cu med, cong Cs]
+25.3 +22.9 87 +34 +34 очень
душно
1009.4 1008.8 0.2 0.8
штиль 0 8000 м дымка 8/3 600 м
[Cu med, cong Cs]
+24.8 +22.9 89 +33 +33 очень
душно
1008.8 1008.2
ЮЗ 3 9000 м дымка 9/3 600 м
[Cu med, cong Ac lent Cs]
+25.3 +23.5 90 +34 +35 очень
душно
1010.3 1009.7 0.8
СЗ 3 10 км 9/3 600 м
[Cu hum Ac lent Cs]
+30.0 +23.5 68 +41 +46 опасность
перегрева
1011.4 1010.8
СВ 5 10 км 9/3 600 м
[Cu med, cong Ac lent Cs]
+30.5 +24.3 70 +43 +47 опасность
перегрева
1009.7 1009.1 0.8
СВ 5 10 км 9/3 600 м
[Cu med, cong Ac lent Cs]
+29.5 +24.3 74 +41 +43 опасность
перегрева
1007.8 1007.2
З 2 8000 м в посл. час дождь 9/3 600 м
[Cu Sc Ac As Cs]
+24.3 +23.7 96 +33 +33 очень
душно
1011.0 1010.4 +32.3 11 11.5
штиль 0 8000 м дымка {дождь} 9/3 600 м
[Cu Sc Ac As Cs]
+24.1 +23.2 95 +32 +32 очень
душно
1012.1 1011.5 2
штиль 0 8000 м дымка {дождь} 9/3 600 м
[Cu med, cong Cs]
+23.6 +22.6 94 +31 +31 очень
душно
1009.7 1009.1 13 12.6
штиль 0 8000 м дымка 8/3 600 м
[Cu med, cong Cs]
+23.8 +22.5 92 +31 +31 очень
душно
1009.4 1008.8
штиль 0 9000 м дымка 8/3 600 м
[Cu med, cong Ac und Cs]
+24.0 +22.5 91 +31 +32 очень
душно
1010.0 1009.4 12.6
З 6 10 км 8/3 600 м
[Cu med, cong Ac und Cs]
+30.5 +23.2 65 +41 +44 опасность
перегрева
1011.8 1011.2
С 7 10 км 9/6 600 м
[Cu Sc Ac As Cs]
+32.5 +23.1 58 +43 +44 опасность
перегрева
1009.2 1008.6 12.6
штиль 0 10 км 8/3 600 м
[Cu med, cong Cs]
+33.0 +23.7 58 +44 +49 опасность
перегрева
1006.5 1006.0
штиль 0 10 км 8/3 600 м
[Cu med, cong Ac und Cs]
+30.5 +23.7 67 +42 +42 опасность
перегрева
1008.4 1007.8 +33.8 1.6
штиль 0 8000 м дымка 8/3 600 м
[Cu med, cong Cs]
+27.5 +23.9 81 +38 +38 очень
душно
1010.6 1010.0
штиль 0 8000 м дымка 8/3 600 м
[Cu med, cong Cs]
+27.0 +23.3 80 +36 +36 очень
душно
1008.4 1007.8
штиль 0 8000 м дымка 8/3 600 м
[Cu med, cong Cs]
+26.5 +22.8 80 +35 +35 очень
душно
1007.6 1007.0
штиль 0 7000 м дымка 9/3 600 м
[Cu Sc Ac lent Cs]
+26.0 +22.3 80 +34 +34 очень
душно
1009.1 1008.5
З 3 10 км 9/3 600 м
[Cu med, cong Ac lent Cs]
+28.1 +22.0 70 +37 +42 очень
душно
1010.6 1010.0
Местоположение метеостанции Наратхиват (Таиланд): широта 6.42 долгота 101.81 высота над уровнем моря 5 м.
В архиве по умолчанию представлена погода в Наратхивате за последнюю неделю. Архивные данные за месяц целиком и за предыдущие месяцы, начиная с января 2011 года, Вы можете получить, выбрав интересующий диапазон дат из раскрывающегося списка и нажав кнопку "Найти!".
*Определитесь, кто Вы:
Внимание! Время в таблицах - всемирное. Для получения местного времени необходимо прибавить поправку, которая равна 7 ч.
Смотрите также архив погоды в соседних городах и на ближайших метеорологических станциях:
Партнеры нашего сайта:      
Пояснения к столбцам:
  • Ветер - указаны скорость ветра в м/с - средняя за 10 мин, порывы в срок и между сроками (в фигурных скобках) и направление, откуда дует ветер: С - северный,
  • СВ - северо-восточный, В - восточный, ЮВ - юго-восточный, Ю - южный, ЮЗ - юго-западный, З - западный, СЗ - северо-западный.
  • Видимость - горизонтальная дальность видимости в метрах или километрах. При видимости от 1 до 10 км при отсутствии осадков обычно наблюдается дымка, при ухудшении видимости до 1 км и менее - туман. В сухую погоду видимость может ухудшаться дымом, пылью или мглою.
  • Явления - указаны атмосферные явления, наблюдавшиеся в срок или в последний час перед сроком; фигурными скобками обозначены явления, наблюдавшиеся между сроками (за 1-3 часа до срока); квадратными скобками обозначены град или гололедные отложения с указанием их диаметра в мм.
  • Облачность - указаны через наклонную черту общая и нижняя облачность в баллах и высота нижней границы облаков в метрах; квадратными скобками обозначены формы облаков: Ci - перистые, Cs - перисто-слоистые, Cc - перисто-кучевые, Ac - высококучевые, As - высокослоистые, Sc - слоисто-кучевые, Ns - слоисто-дождевые, Cu - кучевые, Cb - кучево-дождевые. Подробнее классификацию облаков см. в Атласе облаков (PDF).
  • T - Температура воздуха - температура, измеренная на высоте 2 м над землей.
  • Td - Температура точки росы - температура, при понижении до которой содержащийся в воздухе водяной пар достигнет насыщения.
  • f - Относительная влажность воздуха - влажноcть воздуха, измеренная на высоте 2 м над землей.
  • Te - Эффективная температура - температура, которую ощущает одетый по сезону человек в тени. Характеристика душности погоды. При расчете учитывается влияние влажности воздуха и скорости ветра на теплоощущения человека.
  • Tes - Эффективная температура на солнце - температура, которую ощущает человек, с поправкой на солнечный нагрев. Характеристика знойности погоды. Зависит от высоты солнца над горизонтом, облачности и скорости ветра. Ночью, в пасмурную погоду, а также при ветре 12 м/с и более поправка равна нулю.
  • P - Атмосферное давление - приведенное к уровню моря атмосферное давление.
  • Po - Атмосферное давление - измеренное на уровне метеостанции атмосферное давление.
  • Tmin - Минимальная температура - минимум температуры воздуха на высоте 2 м над землей.
  • Tmax - Максимальная температура - максимум температуры воздуха на высоте 2 м над землей.
  • R - Количество осадков - Количество выпавших осадков за период времени, мм. При наведении курсора мыши на число - период времени, за который выпало указанное количество осадков.
  • R24 - Количество осадков - Количество выпавших осадков за 24 часа, мм.
  • S - Снежный покров - Высота снежного покрова, см. При наведении курсора мыши на число - состояние снежного покрова и степень покрытия местности в баллах.